Weather History for KAVL - April, 2006

Change the Weather History Date:

Wednesday, April 26, 2006

  Actual Average Record
Temperature  
Mean Temperature 56 °F 58 °F  
Max Temperature 61 °F 70 °F 86 °F (1989)
Min Temperature 53 °F 46 °F 30 °F (1968)
Degree Days  
Heating Degree Days 8 7  
Month to date heating degree days 274  
Since 1 July heating degree days 4046  
Cooling Degree Days 0 0  
Month to date cooling degree days 0  
Year to date cooling degree days 1  
Growing Degree Days 6 (Base 50)    
Moisture  
Dew Point 55 °F    
Average Humidity 91    
Maximum Humidity 100    
Minimum Humidity 82    
Precipitation  
Precipitation 0.97 in 0.12 in 2.75 in (1973)
Month to date precipitation 2.89  
Year to date precipitation 14.15  
Snow  
Snow 0.00 in 0.00 in T in (1946)
Month to date snowfall 0.7  
Since 1 July snowfall 9.9  
Snow Depth -    
Sea Level Pressure  
Sea Level Pressure 29.86 in    
Wind  
Wind Speed 4 mph (SE)    
Max Wind Speed 14 mph    
Max Gust Speed -    
Visibility 7 miles    
Events Fog , Rain    
T = Trace of Precipitation, MM = Missing Value Source: NWS Daily Summary

Daily Weather History Graph

Daily Weather History Graph

Search for Another Location

Airport or City:

Trip Planner

Search our weather history database for the weather conditions in past years. The results will help you decide how hot, cold, wet, or windy it might be!

Date:

Astronomy

Apr. 26, 2006 Rise Set
Actual Time 6:44 AM EDT 8:12 PM EDT
Civil Twilight 6:17 AM EDT 8:39 PM EDT
Nautical Twilight 5:45 AM EDT 9:11 PM EDT
Astronomical Twilight 5:11 AM EDT 9:45 PM EDT
Moon 5:51 AM EDT (4/26) 7:13 PM EDT (4/26)
Length of Visible Light 14h 21m
Length of Day
13h 27m
Waning Crescent, 2% of the Moon is Illuminated
Apr 26
Waning Crescent
Apr 27
New
May 5
First Quarter
May 13
Full
May 20
Last Quarter

Hourly Weather History & Observations

Time (EDT) Temp. Dew Point Humidity Pressure Visibility Wind Dir Wind Speed Gust Speed Precip Events Conditions
12:54 AM 57.9 °F 55.0 °F 90% 29.84 in 10.0 mi Calm Calm - N/A   Clear
1:54 AM 57.9 °F 55.0 °F 90% 29.82 in 10.0 mi NW 5.8 mph - N/A   Clear
2:54 AM 57.9 °F 55.0 °F 90% 29.79 in 10.0 mi North 4.6 mph - N/A   Clear
3:54 AM 57.0 °F 54.0 °F 89% 29.82 in 10.0 mi North 6.9 mph - N/A   Clear
4:37 AM 55.4 °F 53.6 °F 94% 29.89 in 7.0 mi Calm Calm - N/A   Mostly Cloudy
4:54 AM 55.0 °F 53.1 °F 93% 29.84 in 6.0 mi Calm Calm - N/A   Mostly Cloudy
5:02 AM 53.6 °F 51.8 °F 94% 29.90 in 6.0 mi Calm Calm - N/A   Partly Cloudy
5:54 AM 54.0 °F 52.0 °F 93% 29.84 in 3.0 mi Calm Calm - N/A   Clear
6:54 AM 54.0 °F 52.0 °F 93% 29.85 in 5.0 mi Calm Calm - N/A   Clear
7:54 AM 55.9 °F 53.1 °F 90% 29.86 in 6.0 mi SSE 3.5 mph - N/A   Overcast
8:26 AM 57.2 °F 53.6 °F 88% 29.92 in 8.0 mi North 5.8 mph - N/A   Mostly Cloudy
8:54 AM 59.0 °F 55.0 °F 87% 29.88 in 8.0 mi Variable 5.8 mph - N/A   Mostly Cloudy
9:54 AM 60.1 °F 55.9 °F 86% 29.88 in 9.0 mi Calm Calm - N/A   Overcast
10:54 AM 60.1 °F 55.9 °F 86% 29.89 in 8.0 mi Calm Calm - 0.01 in   Overcast
11:13 AM 59.0 °F 57.2 °F 94% 29.94 in 1.8 mi Calm Calm - 0.01 in Rain Heavy Rain
11:18 AM 59.0 °F 57.2 °F 94% 29.95 in 1.2 mi NW 9.2 mph - N/A Rain Heavy Rain
11:27 AM 59.0 °F 57.2 °F 94% 29.96 in 0.8 mi NW 13.8 mph - 0.13 in Rain Heavy Rain
11:34 AM 57.2 °F 57.2 °F 100% 29.97 in 0.5 mi NW 12.7 mph - 0.39 in Fog , Rain Heavy Rain
11:45 AM 57.2 °F 57.2 °F 100% 29.97 in 1.0 mi NNW 10.4 mph - 0.56 in Rain Heavy Rain
11:54 AM 57.9 °F 55.9 °F 93% 29.90 in 2.5 mi North 10.4 mph - 0.59 in Rain Rain
11:59 AM 59.0 °F 55.4 °F 88% 29.93 in 5.0 mi NNE 8.1 mph - 0.01 in Rain Light Rain
12:15 PM 59.0 °F 55.4 °F 88% 29.95 in 10.0 mi Variable 4.6 mph - 0.01 in   Mostly Cloudy
12:54 PM 59.0 °F 55.0 °F 87% 29.89 in 6.0 mi South 3.5 mph - 0.03 in Rain Light Rain
1:10 PM 59.0 °F 55.4 °F 88% 29.91 in 7.0 mi SSE 8.1 mph - N/A Rain Light Rain
1:20 PM 59.0 °F 55.4 °F 88% 29.91 in 10.0 mi SSE 4.6 mph - 0.01 in   Mostly Cloudy
1:54 PM 60.8 °F 57.2 °F 88% 29.90 in 10.0 mi Calm Calm - N/A   Mostly Cloudy
2:54 PM 60.1 °F 57.0 °F 90% 29.84 in 10.0 mi Variable 5.8 mph - N/A   Overcast
3:54 PM 60.1 °F 57.0 °F 90% 29.83 in 10.0 mi SE 6.9 mph - 0.00 in   Mostly Cloudy
4:01 PM 60.8 °F 57.2 °F 88% 29.87 in 10.0 mi SE 6.9 mph - N/A   Overcast
4:08 PM 60.8 °F 57.2 °F 88% 29.86 in 10.0 mi SSE 8.1 mph - N/A   Overcast
4:44 PM 60.8 °F 57.2 °F 88% 29.85 in 10.0 mi SSE 9.2 mph - N/A   Mostly Cloudy
4:54 PM 60.1 °F 57.0 °F 90% 29.81 in 10.0 mi SSE 9.2 mph - N/A   Mostly Cloudy
5:43 PM 60.8 °F 55.4 °F 82% 29.84 in 10.0 mi ESE 5.8 mph - N/A   Overcast
5:54 PM 60.1 °F 55.9 °F 86% 29.81 in 10.0 mi SE 8.1 mph - N/A   Overcast
6:54 PM 59.0 °F 55.0 °F 87% 29.78 in 10.0 mi SE 6.9 mph - N/A   Overcast
7:01 PM 59.0 °F 55.4 °F 88% 29.82 in 10.0 mi SE 5.8 mph - N/A   Overcast
7:14 PM 59.0 °F 53.6 °F 82% 29.82 in 10.0 mi Variable 6.9 mph - N/A   Overcast
7:34 PM 57.2 °F 55.4 °F 94% 29.82 in 10.0 mi SSE 5.8 mph - N/A   Overcast
7:54 PM 57.9 °F 54.0 °F 87% 29.79 in 10.0 mi ESE 8.1 mph - N/A   Overcast
8:03 PM 57.2 °F 53.6 °F 88% 29.83 in 9.0 mi ESE 6.9 mph - 0.00 in Rain Light Rain
8:04 PM 57.2 °F 53.6 °F 88% 29.83 in 9.0 mi ESE 6.9 mph - 0.00 in Rain Light Rain
8:09 PM 57.2 °F 53.6 °F 88% 29.83 in 7.0 mi Variable 5.8 mph - 0.00 in Rain Light Rain
8:16 PM 57.2 °F 53.6 °F 88% 29.84 in 3.0 mi SE 4.6 mph - 0.01 in Rain Rain
8:39 PM 57.2 °F 55.4 °F 94% 29.86 in 1.0 mi West 5.8 mph - 0.16 in Rain Heavy Rain
8:54 PM 57.0 °F 55.0 °F 93% 29.82 in 3.0 mi SSE 3.5 mph - 0.28 in Rain Rain
9:08 PM 55.4 °F 55.4 °F 100% 29.85 in 4.0 mi Variable 3.5 mph - 0.03 in Rain Light Rain
9:17 PM 55.4 °F 55.4 °F 100% 29.85 in 4.0 mi South 4.6 mph - 0.03 in Rain Light Rain
9:54 PM 55.9 °F 54.0 °F 93% 29.83 in 8.0 mi Variable 3.5 mph - 0.06 in Rain Light Rain
10:22 PM 55.4 °F 53.6 °F 94% 29.87 in 9.0 mi WNW 3.5 mph - N/A   Overcast
10:54 PM 55.9 °F 54.0 °F 93% 29.83 in 10.0 mi SSE 3.5 mph - N/A   Overcast
11:54 PM 55.9 °F 54.0 °F 93% 29.82 in 10.0 mi Calm Calm - N/A   Overcast